Printer-friendly version

IAU Minor Planet Center

Minor Planet Center

MPEC 2005-O38 : 2005 OU1

The following Minor Planet Electronic Circular may be linked-to from your own Web pages, but must not otherwise be redistributed electronically.


Read MPEC 2005-O37 Read MPEC 2005-O39


M.P.E.C. 2005-O38                                Issued 2005 July 29, 11:35 UT

     The Minor Planet Electronic Circulars contain information on unusual
         minor planets and routine data on comets.  They are published
   on behalf of Commission 20 of the International Astronomical Union by the
          Minor Planet Center, Smithsonian Astrophysical Observatory,
                          Cambridge, MA 02138, U.S.A.

                  Supported in part by the Brinson Foundation
             Prepared using the Tamkin Foundation Computer Network

                              MPC@CFA.HARVARD.EDU
          URL http://cfa-www.harvard.edu/iau/mpc.html  ISSN 1523-6714

                                   2005 OU1

Observations:
     K05O01U* C2005 07 27.32688 21 43 26.63 -16 45 01.2          17.8   EO038644
     K05O01U  C2005 07 27.32817 21 43 26.17 -16 44 59.9          17.6   EO038644
     K05O01U  C2005 07 27.35480 21 43 16.84 -16 44 28.8          17.7   EO038644
     K05O01U  C2005 07 27.35621 21 43 16.35 -16 44 27.4          17.8   EO038644
     K05O01U  C2005 07 27.37835 21 43 08.57 -16 44 01.4          17.7   EO038644
     K05O01U  C2005 07 27.37974 21 43 08.08 -16 43 59.8          17.9   EO038644
     K05O01U  C2005 07 28.92389 21 34 30.59 -16 13 33.3          17.7 R EO038118
     K05O01U  C2005 07 28.92622 21 34 29.84 -16 13 30.2          17.7 R EO038118
     K05O01U  C2005 07 28.92854 21 34 28.99 -16 13 27.8          17.8 R EO038118
     K05O01U  C2005 07 28.93088 21 34 28.19 -16 13 25.3          17.6 R EO038118
     K05O01U  C2005 07 28.93321 21 34 27.39 -16 13 21.9          17.5 R EO038118
     K05O01U  C2005 07 29.20431 21 32 57.37 -16 07 51.9          17.9 R EO038734
     K05O01U  C2005 07 29.20562 21 32 56.92 -16 07 50.2          17.7 R EO038734
     K05O01U  C2005 07 29.20692 21 32 56.45 -16 07 48.8          17.6 R EO038734
     K05O01U  C2005 07 29.20821 21 32 56.02 -16 07 47.1          17.8 R EO038734
     K05O01U  C2005 07 29.20822 21 32 56.52 -16 07 41.7          17.5 R EO038854
     K05O01U  C2005 07 29.21014 21 32 55.90 -16 07 39.0          17.6 R EO038854
     K05O01U  C2005 07 29.21206 21 32 55.19 -16 07 37.2          17.9 R EO038854
     K05O01U 2C2005 07 29.35043 21 32 07.03 -16 04 54.8          17.6 R EO038H06
     K05O01U 2C2005 07 29.35410 21 32 05.77 -16 04 50.1          17.4 R EO038H06
     K05O01U 2C2005 07 29.35776 21 32 04.48 -16 04 46.0          17.4 R EO038H06

Observer details:
118 Modra.  Observers S. Gajdos, J. Toth.  0.6-m f/5.5 reflector + CCD.
644 Palomar Mountain/NEAT.  Observers R. Bambery, M. Hicks, K. Lawrence,
    E. Helin, R. Thicksten.  1.2-m Schmidt + CCD.
734 Farpoint Observatory.  Observer G. Hug.  Measurer D. Tibbets.  0.7-m
    reflector + CCD.
854 Sabino Canyon Observatory, Tucson.  Observer J. E. McGaha.  0.36-m f/10.0
    Schmidt-Cassegrain + CCD.
H06 New Mexico Skies Observatory.  Observer R. Hutsebaut.  0.25-m reflector
    + CCD.

Orbital elements:
2005 OU1
Epoch 2005 July 9.0 TT = JDT 2453560.5                  MPC
M 113.16091              (2000.0)            P               Q
n   1.02286424     Peri.  204.60645     -0.89443156     -0.41461002
a   0.9755676      Node   309.83441     +0.43789095     -0.73587949
e   0.3212786      Incl.   12.60695     +0.09079479     -0.53533158
P   0.96           H   20.1           G   0.15
From 21 observations 2005 July 27-29.

Ephemeris:
2005 OU1                 a,e,i = 0.98, 0.32, 13                  q = 0.6621
Date    TT    R. A. (2000) Decl.     Delta      r     Elong.  Phase     V
2005 07 29    21 34.08   -16 11.5    0.221    1.230   165.2    12.1    18.0
2005 08 08    20 42.18   -12 48.3    0.241    1.253   172.1     6.4    18.0
2005 08 18    20 04.00   -09 53.4    0.281    1.271   154.0    20.5    18.9
2005 08 28    19 41.26   -07 49.2    0.335    1.282   139.2    31.0    19.6
2005 09 07    19 30.88   -06 28.3    0.397    1.288   127.4    38.4    20.2
2005 09 17    19 29.42   -05 33.7    0.463    1.288   117.8    43.6    20.7
2005 09 27    19 34.18   -04 52.2    0.531    1.283   109.7    47.3    21.1
2005 10 07    19 43.41   -04 15.0    0.597    1.272   102.7    50.1    21.4
2005 10 17    19 56.00   -03 35.5    0.659    1.255    96.4    52.1    21.6
2005 10 27    20 11.11   -02 50.0    0.715    1.232    90.8    53.8    21.8
2005 11 06    20 28.27   -01 56.1    0.764    1.204    85.6    55.2    21.9
2005 11 16    20 47.15   -00 51.9    0.804    1.170    80.7    56.5    22.0
2005 11 26    21 07.48   +00 22.7    0.833    1.131    76.3    58.0    22.1

Timothy B. Spahr             (C) Copyright 2005 MPC           M.P.E.C. 2005-O38

Read MPEC 2005-O37 Read MPEC 2005-O39


Our Web policy. Index to the CBAT/MPC/ICQ pages.


Valid HTML 4.01!